Tracking 23114 objects as of 18-May-2021
HD Live streaming from Space Station
objects crossing your sky now

SCOUT G-1 R/B

Track SCOUT G-1 R/B now!
10-day predictions


NORAD ID: 17071
Int'l Code: 1986-088B
Perigee: 958.6 km
Apogee: 1,017.9 km
Inclination: 89.5 °
Period: 104.7 minutes
Semi major axis: 7359 km
RCS: 0.8546 m2 (medium)
Launch date: November 14, 1986
Source: United States (US)
Launch site: AIR FORCE WESTERN TEST RANGE (AFWTR)

Note: This is a ROCKET BODY
aabbcc
Your satellite tracking list
Your tracking list is empty




NASA's NSSDC Master Catalog

Two Line Element Set (TLE):
1 17071U 86088B   21137.81925606  .00000051  00000-0  40707-4 0  9995
2 17071  89.5465 247.7681 0040327  98.0510 262.5234 13.75153199730962
Source of the keplerian elements: AFSPC